, TX

(GMT )
Brazos 451

Weather History for KBQX - February, 2014

Change the Weather History Date:

Thursday, February 6, 2014

  Actual Average Record
Temperature  
Mean Temperature 42 °F -  
Max Temperature 44 °F - - ()
Min Temperature 39 °F - - ()
Degree Days  
Heating Degree Days 24    
Moisture  
Dew Point 33 °F    
Average Humidity 72    
Maximum Humidity 81    
Minimum Humidity 65    
Precipitation  
Precipitation 0.00 in - - ()
Sea Level Pressure  
Sea Level Pressure 30.33 in    
Wind  
Wind Speed 25 mph (NNE)    
Max Wind Speed 32 mph    
Max Gust Speed 38 mph    
Visibility 10 miles    
Events      
Averages and records for this station are not official NWS values.
T = Trace of Precipitation, MM = Missing Value Source: NWS Daily Summary

Daily Weather History Graph

Daily Weather History Graph

Search for Another Location

Airport or City:

Trip Planner

Search our weather history database for the weather conditions in past years. The results will help you decide how hot, cold, wet, or windy it might be!

Date:

Astronomy

Feb. 06, 2014 Rise Set
Actual Time 7:07 AM CST 6:06 PM CST
Civil Twilight 6:43 AM CST 6:31 PM CST
Nautical Twilight 6:15 AM CST 6:59 PM CST
Astronomical Twilight 5:47 AM CST 7:26 PM CST
Moon 11:40 AM CST (2/6) 12:24 AM CST (2/6)
Length of Visible Light 11h 47m
Length of Day
10h 58m
Waxing Crescent, 49% of the Moon is Illuminated
Feb 6
Waxing Crescent
Feb 6
First Quarter
Feb 14
Full
Feb 22
Last Quarter
Mar 1
New

Hourly Weather History & Observations

Time (CST) Temp. Windchill Dew Point Humidity Pressure Visibility Wind Dir Wind Speed Gust Speed Precip Events Conditions
12:15 AM 44.6 °F 34.6 °F 37.4 °F 76% 30.30 in 10.0 mi NNE 31.1 mph 36.8 mph N/A   Overcast
12:35 AM 44.6 °F 34.7 °F 35.6 °F 71% 30.30 in 10.0 mi NNE 29.9 mph 35.7 mph N/A   Overcast
12:55 AM 44.6 °F 34.9 °F 35.6 °F 71% 30.30 in 10.0 mi NNE 28.8 mph 36.8 mph N/A   Overcast
1:15 AM 44.6 °F 34.7 °F 35.6 °F 71% 30.29 in 10.0 mi NNE 29.9 mph - N/A   Overcast
1:35 AM 44.6 °F 34.7 °F 35.6 °F 71% 30.29 in 10.0 mi NNE 29.9 mph 36.8 mph N/A   Overcast
1:55 AM 44.6 °F 34.9 °F 37.4 °F 76% 30.27 in 10.0 mi NNE 28.8 mph 35.7 mph N/A   Overcast
2:15 AM 44.6 °F 34.6 °F 35.6 °F 71% 30.26 in 10.0 mi NNE 31.1 mph 36.8 mph N/A   Overcast
2:35 AM 44.6 °F 34.9 °F 35.6 °F 71% 30.27 in 10.0 mi NNE 28.8 mph 36.8 mph N/A   Overcast
2:55 AM 42.8 °F 32.1 °F 35.6 °F 76% 30.28 in 10.0 mi NNE 31.1 mph 38.0 mph N/A   Overcast
3:15 AM 42.8 °F 32.3 °F 35.6 °F 76% 30.27 in 10.0 mi NNE 29.9 mph - N/A   Overcast
3:35 AM 42.8 °F 31.9 °F 35.6 °F 76% 30.27 in 10.0 mi NNE 32.2 mph - N/A   Overcast
3:55 AM 42.8 °F 32.7 °F 35.6 °F 76% 30.29 in 10.0 mi NNE 27.6 mph 34.5 mph N/A   Overcast
4:15 AM 42.8 °F 32.7 °F 35.6 °F 76% 30.30 in 10.0 mi NNE 27.6 mph 34.5 mph N/A   Overcast
4:35 AM 42.8 °F 33.1 °F 33.8 °F 70% 30.31 in 10.0 mi North 25.3 mph - N/A   Overcast
4:55 AM 41.0 °F 30.7 °F 33.8 °F 76% 30.31 in 10.0 mi NNE 25.3 mph - N/A   Overcast
5:15 AM 41.0 °F 31.1 °F 32.0 °F 70% 30.32 in 10.0 mi NNE 23.0 mph - N/A   Overcast
5:35 AM 41.0 °F 30.7 °F 32.0 °F 70% 30.32 in 10.0 mi NNE 25.3 mph 31.1 mph N/A   Overcast
5:55 AM 41.0 °F 30.2 °F 32.0 °F 70% 30.32 in 10.0 mi NNE 27.6 mph - N/A   Overcast
6:15 AM 41.0 °F 31.4 °F 32.0 °F 70% 30.35 in 10.0 mi North 21.9 mph 31.1 mph N/A   Overcast
6:35 AM 41.0 °F 31.4 °F 32.0 °F 70% 30.36 in 10.0 mi NNE 21.9 mph - N/A   Overcast
6:55 AM 41.0 °F 31.6 °F 32.0 °F 70% 30.37 in 10.0 mi North 20.7 mph - N/A   Overcast
7:15 AM 41.0 °F 30.7 °F 32.0 °F 70% 30.37 in 1.5 mi NNE 25.3 mph - N/A   Haze
7:35 AM 41.0 °F 30.7 °F 32.0 °F 70% 30.38 in 10.0 mi NNE 25.3 mph - N/A   Overcast
7:55 AM 41.0 °F 31.6 °F 32.0 °F 70% 30.39 in 10.0 mi NNE 20.7 mph 29.9 mph N/A   Overcast
8:15 AM 39.2 °F 28.5 °F 32.0 °F 75% 30.39 in 9.0 mi NNE 24.2 mph - N/A   Overcast
8:35 AM 39.2 °F 28.7 °F 32.0 °F 75% 30.40 in 10.0 mi NNE 23.0 mph 28.8 mph N/A   Overcast
8:55 AM 39.2 °F 28.7 °F 32.0 °F 75% 30.39 in 10.0 mi NNE 23.0 mph 31.1 mph N/A   Overcast
9:15 AM 39.2 °F 28.7 °F 32.0 °F 75% 30.40 in 10.0 mi NNE 23.0 mph 28.8 mph N/A   Overcast
9:35 AM 41.0 °F 31.1 °F 32.0 °F 70% 30.40 in 10.0 mi NNE 23.0 mph - N/A   Overcast
9:55 AM 41.0 °F 31.9 °F 32.0 °F 70% 30.41 in 10.0 mi NNE 19.6 mph 27.6 mph N/A   Overcast
10:15 AM 39.2 °F 29.6 °F 32.0 °F 75% 30.42 in 10.0 mi NNE 19.6 mph 26.5 mph N/A   Overcast
10:35 AM 41.0 °F 30.9 °F 33.8 °F 76% 30.41 in 10.0 mi NNE 24.2 mph - N/A   Overcast
10:55 AM 39.2 °F 29.0 °F 32.0 °F 75% 30.41 in 10.0 mi NNE 21.9 mph 29.9 mph N/A   Overcast
11:15 AM 39.2 °F 29.0 °F 32.0 °F 75% 30.39 in 9.0 mi NNE 21.9 mph - N/A   Overcast
11:35 AM 39.2 °F 29.6 °F 32.0 °F 75% 30.39 in 10.0 mi NNE 19.6 mph - N/A   Overcast
11:55 AM 39.2 °F 29.0 °F 32.0 °F 75% 30.38 in 10.0 mi NNE 21.9 mph - N/A   Overcast
12:15 PM 39.2 °F 28.5 °F 32.0 °F 75% 30.38 in 10.0 mi NNE 24.2 mph - N/A   Overcast
12:35 PM 39.2 °F 29.6 °F 30.2 °F 70% 30.38 in 10.0 mi NNE 19.6 mph 26.5 mph N/A   Overcast
12:55 PM 39.2 °F 28.7 °F 32.0 °F 75% 30.36 in 10.0 mi North 23.0 mph - N/A   Overcast
1:15 PM 39.2 °F 29.0 °F 30.2 °F 70% 30.35 in 10.0 mi North 21.9 mph 28.8 mph N/A   Overcast
1:35 PM 39.2 °F 29.6 °F 32.0 °F 75% 30.34 in 10.0 mi NNE 19.6 mph 28.8 mph N/A   Overcast
1:55 PM 39.2 °F 29.3 °F 32.0 °F 75% 30.33 in 10.0 mi NNE 20.7 mph - N/A   Overcast
2:15 PM 39.2 °F 29.3 °F 32.0 °F 75% 30.33 in 10.0 mi NNE 20.7 mph 27.6 mph N/A   Overcast
2:35 PM 41.0 °F 31.1 °F 32.0 °F 70% 30.33 in 10.0 mi NNE 23.0 mph 28.8 mph N/A   Overcast
2:55 PM 41.0 °F 31.6 °F 32.0 °F 70% 30.32 in 10.0 mi NNE 20.7 mph 28.8 mph N/A   Overcast
3:15 PM 41.0 °F 31.4 °F 30.2 °F 65% 30.32 in 10.0 mi NNE 21.9 mph - N/A   Overcast
3:35 PM 41.0 °F 31.6 °F 30.2 °F 65% 30.32 in 10.0 mi NNE 20.7 mph - N/A   Overcast
3:55 PM 41.0 °F 32.5 °F 32.0 °F 70% 30.32 in 10.0 mi NNE 17.3 mph 26.5 mph N/A   Overcast
4:15 PM 41.0 °F 31.4 °F 32.0 °F 70% 30.32 in 10.0 mi NNE 21.9 mph 28.8 mph N/A   Overcast
4:35 PM 41.0 °F 31.6 °F 32.0 °F 70% 30.32 in 10.0 mi NNE 20.7 mph - N/A   Overcast
4:55 PM 42.8 °F 33.8 °F 32.0 °F 66% 30.32 in 10.0 mi NNE 21.9 mph - N/A   Overcast
5:15 PM 42.8 °F 34.0 °F 32.0 °F 66% 30.31 in 10.0 mi NNE 20.7 mph - N/A   Overcast
5:35 PM 42.8 °F 34.5 °F 32.0 °F 66% 30.32 in 10.0 mi NNE 18.4 mph - N/A   Overcast
5:55 PM 42.8 °F 34.3 °F 32.0 °F 66% 30.31 in 10.0 mi NNE 19.6 mph 26.5 mph N/A   Overcast
6:15 PM 42.8 °F 34.3 °F 32.0 °F 66% 30.31 in 10.0 mi NNE 19.6 mph 26.5 mph N/A   Overcast
6:35 PM 42.8 °F 35.1 °F 33.8 °F 70% 30.31 in 10.0 mi NE 16.1 mph 25.3 mph N/A   Overcast
6:55 PM 42.8 °F 34.5 °F 33.8 °F 70% 30.32 in 10.0 mi NNE 18.4 mph - N/A   Overcast
7:15 PM 42.8 °F 34.8 °F 33.8 °F 70% 30.33 in 10.0 mi NNE 17.3 mph 26.5 mph N/A   Overcast
7:35 PM 44.6 °F 36.4 °F 33.8 °F 66% 30.32 in 10.0 mi NNE 20.7 mph - N/A   Overcast
7:55 PM 44.6 °F 38.1 °F 33.8 °F 66% 30.33 in 10.0 mi NE 13.8 mph 24.2 mph N/A   Overcast
8:15 PM 44.6 °F 36.6 °F 33.8 °F 66% 30.33 in 10.0 mi NE 19.6 mph - N/A   Overcast
8:35 PM 44.6 °F 37.2 °F 35.6 °F 71% 30.33 in 10.0 mi NE 17.3 mph 24.2 mph N/A   Overcast
8:55 PM 44.6 °F 36.6 °F 35.6 °F 71% 30.32 in 10.0 mi NNE 19.6 mph 25.3 mph N/A   Overcast
9:15 PM 44.6 °F 37.4 °F 35.6 °F 71% 30.33 in 10.0 mi NNE 16.1 mph 24.2 mph N/A   Overcast
9:35 PM 44.6 °F 36.6 °F 35.6 °F 71% 30.33 in 9.0 mi NNE 19.6 mph - N/A   Overcast
9:55 PM 44.6 °F 36.1 °F 35.6 °F 71% 30.32 in 9.0 mi NNE 21.9 mph - N/A   Overcast
10:15 PM 42.8 °F 33.5 °F 37.4 °F 81% 30.32 in 9.0 mi NNE 23.0 mph - N/A   Overcast
10:35 PM 42.8 °F 33.8 °F 37.4 °F 81% 30.32 in 8.0 mi NNE 21.9 mph 27.6 mph N/A   Overcast
10:55 PM 42.8 °F 33.8 °F 35.6 °F 76% 30.33 in 8.0 mi NNE 21.9 mph - N/A   Overcast
11:15 PM 42.8 °F 34.0 °F 35.6 °F 76% 30.33 in 7.0 mi NNE 20.7 mph - N/A   Overcast
11:35 PM 42.8 °F 33.8 °F 37.4 °F 81% 30.33 in 7.0 mi NNE 21.9 mph - N/A   Overcast
11:55 PM 41.0 °F 30.9 °F 35.6 °F 81% 30.33 in 6.0 mi NNE 24.2 mph - N/A   Haze